Location: Stigler
(35.2540°N, 95.1230°W)
Time: 23:27:53
(UTC-06:00)

Daily predictions for brighter satellites

Satellite Brightness Start Highest point End
(mag) Time Altitude Azimuth Time Altitude Azimuth Time Altitude Azimuth
Cosmos 1818 4.3 18:27:41 10° SW 18:33:01 58° WNW 18:38:25 10° NNE
Cosmos 676 Rocket 4.0 18:28:29 10° SSW 18:33:39 87° ESE 18:38:53 10° NNE
ALOS 3.5 18:31:03 10° ESE 18:34:30 21° ENE 18:37:57 10° NNE
Cosmos 1709 Rocket 4.1 18:30:17 10° S 18:36:22 58° E 18:42:24 10° NNE
Abrixas rocket 2.8 18:34:28 10° SSW 18:37:39 41° SE 18:40:50 10° ENE
ASTRO F (AKARI) 4.3 18:35:18 10° NNE 18:38:47 73° ESE 18:42:05 10° S
OTV 4 2.8 18:38:44 10° SSE 18:39:50 12° SSE 18:40:57 10° SE
COSMOS 2428 4.1 18:36:05 10° NNE 18:40:04 19° ENE 18:44:01 10° E
Okean 1 Rocket 3.8 18:37:36 10° SSE 18:41:35 32° E 18:45:34 10° NNE
Cosmos 2151 Rocket 3.8 18:38:58 10° S 18:43:28 80° W 18:48:00 10° N
FREGAT/IRIS 3.5 18:41:29 10° SE 18:44:12 29° ENE 18:46:55 10° NNE
Cosmos 1140 Rocket 3.5 18:39:27 10° S 18:44:30 64° ESE 18:49:37 10° NNE
Cosmos 1812 3.4 18:40:47 10° NNW 18:44:36 60° W 18:48:22 10° S
Cosmos 1536 3.8 18:42:11 10° SSE 18:45:31 26° E 18:48:51 10° NNE
Cosmos 614 Rocket 4.1 18:45:04 10° S 18:50:00 52° ESE 18:54:55 10° NNE
ATLAS CENTAUR R/B 3.4 18:46:16 10° S 18:50:38 19° SE 18:52:47 12° E
Okean 1 3.5 18:48:38 10° N 18:52:43 82° W 18:56:46 10° S
Tiangong 2 1.6 18:52:18 10° WNW 18:55:20 53° SSW 18:58:18 10° SE
Cosmos 2360 Rocket 2.3 18:50:28 10° NNW 18:56:02 56° ENE 19:01:34 10° SE
CZ-3C R/B 3.4 18:47:24 10° WSW 18:56:18 21° SSW 18:59:51 10° SSE
Cosmos 2219 3.6 18:51:03 10° S 18:56:27 44° ESE 19:01:52 10° NE
Cosmos 2219 Rocket 3.8 18:53:43 10° NNE 18:56:37 14° NE 18:58:31 12° ENE
DELTA 2 R/B (1) 3.6 18:51:50 10° WNW 18:57:29 84° NNE 19:02:40 12° ESE
Cosmos 1025 Rocket 4.2 18:56:33 10° NNE 18:59:57 22° ENE 19:03:20 10° SE
Cosmos 2227 Rocket 3.9 18:59:29 10° ESE 19:01:12 12° ESE 19:01:12 12° ESE
Spot 2 Rocket 4.2 18:59:05 10° SE 19:03:29 32° ENE 19:07:57 10° N
Cosmos 1602 4.1 19:08:02 10° SSW 19:11:53 68° W 19:15:46 10° N
Cosmos 2208 Rocket 4.5 19:08:59 10° N 19:14:06 40° ENE 19:19:07 10° SE
Meteor 1-11 Rocket 3.8 19:08:45 10° S 19:14:31 90° ESE 19:20:27 10° N
Okean 1-7 Rocket 3.9 19:10:21 10° N 19:14:39 43° E 19:18:54 10° SSE
Cosmos 1850 Rocket 4.0 19:10:49 10° SSW 19:16:05 80° ESE 19:21:26 10° NNE
HJ-1C 3.3 19:17:16 10° SSE 19:20:35 60° ENE 19:23:54 10° N
Cosmos 1340 3.8 19:22:25 10° NNW 19:26:03 46° W 19:29:41 10° SSW
Cosmos 1238 Rocket 2.8 19:23:24 10° NNW 19:26:17 54° W 19:29:17 10° S
Cosmos 2333 Rocket 3.3 19:30:14 10° N 19:34:50 24° ENE 19:35:00 24° ENE
SL-19 R/B 4.3 19:30:41 10° SSE 19:36:16 73° ENE 19:42:14 10° N
FENGYUN 3A 3.9 19:42:35 10° S 19:47:58 72° WSW 19:53:24 10° NNW
Genesis I 3.0 19:44:21 10° NNW 19:48:17 84° ENE 19:49:02 57° SE
Resurs 01 Rocket 1.6 19:44:03 10° S 19:48:27 82° W 19:52:52 10° NNW
Helios 1A 3.3 19:50:39 46° NE 19:50:39 46° NE 19:54:06 10° N
FengYun 1-2 T 4.5 19:46:25 10° S 19:51:51 68° WSW 19:57:20 10° NNW
Meteor 1-5 Rocket 4.4 19:49:29 10° S 19:55:27 79° W 20:01:24 10° N
Cosmos 1610 Rocket 4.3 19:50:50 10° S 19:57:02 75° E 20:03:12 10° N
Hubble Space Telescope 2.3 19:54:30 10° SW 19:57:31 25° S 19:57:31 25° S
GPS 2-04 Rocket1 2.7 19:54:13 10° W 19:58:32 89° SSE 19:58:47 80° E
Helios 1B rocket 2.3 19:57:29 10° NNE 20:01:40 88° ESE 20:05:47 10° SSW
Okean 2 3.5 19:58:10 10° N 20:01:43 61° NNE 20:01:43 61° NNE
GEOS 3 Rocket 4.4 19:57:22 10° NNE 20:02:25 50° NW 20:07:30 10° SW
Resurs 1-3 3.9 19:59:21 10° S 20:03:41 65° WSW 20:08:04 10° NNW
Spot 1 4.2 20:06:59 60° N 20:06:59 60° N 20:10:23 10° NNW
CZ-2D R/B 3.5 20:09:07 64° W 20:09:07 64° W 20:12:47 10° NNW
ALOS 3.9 20:07:29 10° SSW 20:11:41 33° W 20:15:54 10° NNW
H-2A R/B 3.9 20:09:48 18° SSW 20:12:10 40° W 20:15:43 10° NNW
Abrixas rocket 4.4 20:11:49 10° W 20:14:08 23° NW 20:14:08 23° NW
OTV 4 3.3 20:12:35 10° WSW 20:13:15 15° WSW 20:13:15 15° WSW
BREEZE-M DEB (TANK) 3.0 20:16:28 10° NW 20:19:44 81° NE 20:19:58 78° E
COSMOS 2428 3.3 20:19:08 10° NNW 20:24:41 56° WSW 20:27:30 28° S
Atlas Centaur 2 3.9 20:19:33 10° SSW 20:23:41 23° S 20:23:41 23° S
Cosmos 2297 Rocket 4.0 20:19:28 10° S 20:20:42 17° S 20:20:42 17° S
Cosmos 2237 Rocket 3.3 20:20:32 10° N 20:23:52 32° NNE 20:23:52 32° NNE
Cosmos 2219 Rocket 2.5 20:35:34 10° NNW 20:40:18 62° NW 20:40:18 62° NW
Cosmos 2227 Rocket 3.0 20:39:25 10° SSW 20:43:12 43° SW 20:43:12 43° SW
Nadezhda 3 Rocket 4.1 20:42:52 10° NNW 20:48:47 69° WNW 20:48:47 69° WNW
USA 229 DEB 4.2 20:51:57 10° NW 20:58:57 58° WSW 20:59:38 56° SW
USA 229 4.1 20:52:02 10° NW 20:59:04 58° WSW 20:59:41 56° SW
SL-16 R/B 4.5 20:55:04 10° N 20:55:51 14° N 20:55:51 14° N
Cosmos 2333 Rocket 3.8 21:13:49 10° NW 21:17:03 31° WNW 21:17:03 31° WNW
